MV Nord Discovery — 3EGP — position and weather

sailwx.info

Track history (hours):
 
Tides and Currents Weather Stations Pressure Air Temp Water Temp Dewpoint Dewpoint Depression Visibility Wind Speed Wind Dir Waves Ship Positions

MV Nord Discovery

Last reported at 2014-Sep-02 23:29 UTC. Time now 2014-Sep-02 23:48 UTC.
Position S 29°52' E 031°01'.

Length 183 m; draft 11 m.

Type: Cargo ship. MMSI: 354855000.

Date/timePositionNaut miles runAvg speedWind from/ knotsBaromVisibWave heightAir tempDewpointWater temp
2014-Sep-02 23:29S 29°52' E 031°01'0 0.0
2014-Sep-02 22:23S 29°52' E 031°01'0 0.0
2014-Sep-02 21:11S 29°52' E 031°01'0 0.0
2014-Sep-02 20:29S 29°52' E 031°01'0 0.0
2014-Sep-02 19:29S 29°52' E 031°01'0 0.0
2014-Sep-02 18:25S 29°52' E 031°01'2 2.0
2014-Sep-02 17:29S 29°53' E 031°02'0 0.0
2014-Sep-02 16:23S 29°53' E 031°02'0 0.0
2014-Sep-02 15:23S 29°53' E 031°02'0 0.0
2014-Sep-02 14:29S 29°53' E 031°02'0 0.0
2014-Sep-02 13:29S 29°53' E 031°02'0 0.0
2014-Sep-02 12:29S 29°53' E 031°02'0 0.0
2014-Sep-02 11:29S 29°53' E 031°02'0 0.0
2014-Sep-02 10:23S 29°53' E 031°02'0 0.0
2014-Sep-02 09:29S 29°53' E 031°02'0 0.0
2014-Sep-02 08:29S 29°53' E 031°02'0 0.0
2014-Sep-02 07:29S 29°53' E 031°02'0 0.0
2014-Sep-02 06:28S 29°53' E 031°02'0 0.0
2014-Sep-02 05:28S 29°53' E 031°02'0 0.0
2014-Sep-02 04:28S 29°53' E 031°02'0 0.0
2014-Sep-02 03:28S 29°53' E 031°02'0 0.0
2014-Sep-02 02:28S 29°53' E 031°02'0 0.0
2014-Sep-02 01:22S 29°53' E 031°02'0 0.0
2014-Sep-02 00:28S 29°53' E 031°02'0 0.0
2014-Sep-01 23:28S 29°53' E 031°02'0 0.0
2014-Sep-01 22:28S 29°53' E 031°02'0 0.0
2014-Sep-01 21:28S 29°53' E 031°02'0 0.0
2014-Sep-01 20:28S 29°53' E 031°02'0 0.0
2014-Sep-01 19:28S 29°53' E 031°02'0 0.0
2014-Sep-01 18:28S 29°53' E 031°02'0 0.0
2014-Sep-01 17:22S 29°53' E 031°02'0 0.0
2014-Sep-01 16:16S 29°53' E 031°02'0 0.0
2014-Sep-01 15:28S 29°53' E 031°02'0 0.0
2014-Sep-01 14:28S 29°53' E 031°02'0 0.0
2014-Sep-01 13:28S 29°53' E 031°02'0 0.0
2014-Sep-01 12:22S 29°53' E 031°02'0 0.0
2014-Sep-01 11:22S 29°53' E 031°02'0 0.0
2014-Sep-01 10:28S 29°53' E 031°02'0 0.0
2014-Sep-01 09:28S 29°53' E 031°02'0 0.0
2014-Sep-01 08:22S 29°53' E 031°02'0 0.0
2014-Sep-01 07:31S 29°53' E 031°02'4 3.8
2014-Sep-01 06:33S 29°50' E 031°05'0 0.4
2014-Sep-01 05:33S 29°50' E 031°05'3 2.7
2014-Sep-01 04:33S 29°48' E 031°08'4 4.0
2014-Sep-01 03:33S 29°49' E 031°12'3 2.8
2014-Sep-01 02:33S 29°48' E 031°09'1 0.8
2014-Sep-01 01:33S 29°49' E 031°08'7 6.8
2014-Sep-01 00:33S 29°53' E 031°14'2 1.8
2014-Aug-31 23:33S 29°55' E 031°15'1 0.8
2014-Aug-31 22:33S 29°54' E 031°15'1 1.4
2014-Aug-31 21:33S 29°53' E 031°15'1 0.7
2014-Aug-31 20:33S 29°52' E 031°15'1 0.8
2014-Aug-31 19:33S 29°51' E 031°15'1 0.6
2014-Aug-31 18:33S 29°51' E 031°15'0 0.4
2014-Aug-31 17:33S 29°50' E 031°15'1 0.5
2014-Aug-31 16:33S 29°50' E 031°15'3 2.6
2014-Aug-31 15:33S 29°47' E 031°14'0 0.2
2014-Aug-31 14:33S 29°47' E 031°14'1 0.8
2014-Aug-31 13:33S 29°48' E 031°14'1 0.6
2014-Aug-31 12:33S 29°47' E 031°14'1 0.6
2014-Aug-31 11:33S 29°47' E 031°14'1 0.6
2014-Aug-31 10:33S 29°46' E 031°14'0 0.5
2014-Aug-31 09:33S 29°46' E 031°14'1 0.9
2014-Aug-31 08:33S 29°45' E 031°15'1 0.6
2014-Aug-31 07:33S 29°45' E 031°15'1 0.6
2014-Aug-31 06:33S 29°44' E 031°16'1 1.3
2014-Aug-31 05:33S 29°43' E 031°16'1 0.6
2014-Aug-31 04:33S 29°42' E 031°16'0 0.3
2014-Aug-31 03:33S 29°42' E 031°17'0 0.3
2014-Aug-31 02:33S 29°42' E 031°17'1 0.7
2014-Aug-31 01:33S 29°41' E 031°17'1 0.8
2014-Aug-31 00:33S 29°40' E 031°17'4 4.2
2014-Aug-30 23:33S 29°44' E 031°19'5 5.1
2014-Aug-30 22:33S 29°49' E 031°20'1 0.7
2014-Aug-30 21:33S 29°49' E 031°20'0 0.5
2014-Aug-30 20:33S 29°48' E 031°19'1 1.0
2014-Aug-30 19:33S 29°48' E 031°18'1 1.0
2014-Aug-30 18:33S 29°47' E 031°18'1 0.8
2014-Aug-30 17:33S 29°46' E 031°17'1 0.9
2014-Aug-30 16:33S 29°46' E 031°17'1 0.5
2014-Aug-30 15:33S 29°45' E 031°17'1 0.8
2014-Aug-30 14:33S 29°44' E 031°17'1 1.5
2014-Aug-30 13:33S 29°43' E 031°18'1 0.8
2014-Aug-30 12:33S 29°42' E 031°18'0 0.5
2014-Aug-30 11:33S 29°42' E 031°18'1 0.6
2014-Aug-30 10:33S 29°41' E 031°18'1 1.1
2014-Aug-30 09:33S 29°40' E 031°18'2 2.4
2014-Aug-30 08:33S 29°42' E 031°17'8 7.5
2014-Aug-30 07:33S 29°50' E 031°15'8 7.6
2014-Aug-30 06:33S 29°56' E 031°10'9 8.7
2014-Aug-30 05:33S 30°03' E 031°04'1111.2
2014-Aug-30 04:32S 30°13' E 030°58'30011.1
2014-Aug-29 01:30S 33°51' E 026°54'24111.4
2014-Aug-28 04:24S 34°40' E 022°09'6610.9
2014-Aug-27 22:20S 34°51' E 020°49'2110.9
2014-Aug-27 20:26S 34°54' E 020°25'3110.7
2014-Aug-27 17:31S 34°57' E 019°47'2310.2
2014-Aug-27 15:14S 34°50' E 019°20'1810.4
2014-Aug-27 13:30S 34°42' E 018°60'1010.8
2014-Aug-27 12:33S 34°38' E 018°48'1110.8
2014-Aug-27 11:33S 34°34' E 018°36'1310.7
2014-Aug-27 10:23S 34°29' E 018°22'13 9.9
2014-Aug-27 09:04S 34°20' E 018°11'5 9.8
2014-Aug-27 08:31S 34°15' E 018°08'1010.0
2014-Aug-27 07:32S 34°07' E 018°01'  
Track history (hours):
 
Tides and Currents Weather Stations Pressure Air Temp Water Temp Dewpoint Dewpoint Depression Visibility Wind Speed Wind Dir Waves Ship Positions

MV Nord Discovery

Last reported at 2014-Sep-02 23:29 UTC. Time now 2014-Sep-02 23:48 UTC.
Position S 29°52' E 031°01'.

Length 183 m; draft 11 m.

Type: Cargo ship. MMSI: 354855000.

Date/timePositionNaut miles runAvg speedWind from/ knotsBaromVisibWave heightAir tempDewpointWater temp
2014-Sep-02 23:29S 29°52' E 031°01'0 0.0
2014-Sep-02 22:23S 29°52' E 031°01'0 0.0
2014-Sep-02 21:11S 29°52' E 031°01'0 0.0
2014-Sep-02 20:29S 29°52' E 031°01'0 0.0
2014-Sep-02 19:29S 29°52' E 031°01'0 0.0
2014-Sep-02 18:25S 29°52' E 031°01'2 2.0
2014-Sep-02 17:29S 29°53' E 031°02'0 0.0
2014-Sep-02 16:23S 29°53' E 031°02'0 0.0
2014-Sep-02 15:23S 29°53' E 031°02'0 0.0
2014-Sep-02 14:29S 29°53' E 031°02'0 0.0
2014-Sep-02 13:29S 29°53' E 031°02'0 0.0
2014-Sep-02 12:29S 29°53' E 031°02'0 0.0
2014-Sep-02 11:29S 29°53' E 031°02'0 0.0
2014-Sep-02 10:23S 29°53' E 031°02'0 0.0
2014-Sep-02 09:29S 29°53' E 031°02'0 0.0
2014-Sep-02 08:29S 29°53' E 031°02'0 0.0
2014-Sep-02 07:29S 29°53' E 031°02'0 0.0
2014-Sep-02 06:28S 29°53' E 031°02'0 0.0
2014-Sep-02 05:28S 29°53' E 031°02'0 0.0
2014-Sep-02 04:28S 29°53' E 031°02'0 0.0
2014-Sep-02 03:28S 29°53' E 031°02'0 0.0
2014-Sep-02 02:28S 29°53' E 031°02'0 0.0
2014-Sep-02 01:22S 29°53' E 031°02'0 0.0
2014-Sep-02 00:28S 29°53' E 031°02'0 0.0
2014-Sep-01 23:28S 29°53' E 031°02'0 0.0
2014-Sep-01 22:28S 29°53' E 031°02'0 0.0
2014-Sep-01 21:28S 29°53' E 031°02'0 0.0
2014-Sep-01 20:28S 29°53' E 031°02'0 0.0
2014-Sep-01 19:28S 29°53' E 031°02'0 0.0
2014-Sep-01 18:28S 29°53' E 031°02'0 0.0
2014-Sep-01 17:22S 29°53' E 031°02'0 0.0
2014-Sep-01 16:16S 29°53' E 031°02'0 0.0
2014-Sep-01 15:28S 29°53' E 031°02'0 0.0
2014-Sep-01 14:28S 29°53' E 031°02'0 0.0
2014-Sep-01 13:28S 29°53' E 031°02'0 0.0
2014-Sep-01 12:22S 29°53' E 031°02'0 0.0
2014-Sep-01 11:22S 29°53' E 031°02'0 0.0
2014-Sep-01 10:28S 29°53' E 031°02'0 0.0
2014-Sep-01 09:28S 29°53' E 031°02'0 0.0
2014-Sep-01 08:22S 29°53' E 031°02'0 0.0
2014-Sep-01 07:31S 29°53' E 031°02'4 3.8
2014-Sep-01 06:33S 29°50' E 031°05'0 0.4
2014-Sep-01 05:33S 29°50' E 031°05'3 2.7
2014-Sep-01 04:33S 29°48' E 031°08'4 4.0
2014-Sep-01 03:33S 29°49' E 031°12'3 2.8
2014-Sep-01 02:33S 29°48' E 031°09'1 0.8
2014-Sep-01 01:33S 29°49' E 031°08'7 6.8
2014-Sep-01 00:33S 29°53' E 031°14'2 1.8
2014-Aug-31 23:33S 29°55' E 031°15'1 0.8
2014-Aug-31 22:33S 29°54' E 031°15'1 1.4
2014-Aug-31 21:33S 29°53' E 031°15'1 0.7
2014-Aug-31 20:33S 29°52' E 031°15'1 0.8
2014-Aug-31 19:33S 29°51' E 031°15'1 0.6
2014-Aug-31 18:33S 29°51' E 031°15'0 0.4
2014-Aug-31 17:33S 29°50' E 031°15'1 0.5
2014-Aug-31 16:33S 29°50' E 031°15'3 2.6
2014-Aug-31 15:33S 29°47' E 031°14'0 0.2
2014-Aug-31 14:33S 29°47' E 031°14'1 0.8
2014-Aug-31 13:33S 29°48' E 031°14'1 0.6
2014-Aug-31 12:33S 29°47' E 031°14'1 0.6
2014-Aug-31 11:33S 29°47' E 031°14'1 0.6
2014-Aug-31 10:33S 29°46' E 031°14'0 0.5
2014-Aug-31 09:33S 29°46' E 031°14'1 0.9
2014-Aug-31 08:33S 29°45' E 031°15'1 0.6
2014-Aug-31 07:33S 29°45' E 031°15'1 0.6
2014-Aug-31 06:33S 29°44' E 031°16'1 1.3
2014-Aug-31 05:33S 29°43' E 031°16'1 0.6
2014-Aug-31 04:33S 29°42' E 031°16'0 0.3
2014-Aug-31 03:33S 29°42' E 031°17'0 0.3
2014-Aug-31 02:33S 29°42' E 031°17'1 0.7
2014-Aug-31 01:33S 29°41' E 031°17'1 0.8
2014-Aug-31 00:33S 29°40' E 031°17'4 4.2
2014-Aug-30 23:33S 29°44' E 031°19'5 5.1
2014-Aug-30 22:33S 29°49' E 031°20'1 0.7
2014-Aug-30 21:33S 29°49' E 031°20'0 0.5
2014-Aug-30 20:33S 29°48' E 031°19'1 1.0
2014-Aug-30 19:33S 29°48' E 031°18'1 1.0
2014-Aug-30 18:33S 29°47' E 031°18'1 0.8
2014-Aug-30 17:33S 29°46' E 031°17'1 0.9
2014-Aug-30 16:33S 29°46' E 031°17'1 0.5
2014-Aug-30 15:33S 29°45' E 031°17'1 0.8
2014-Aug-30 14:33S 29°44' E 031°17'1 1.5
2014-Aug-30 13:33S 29°43' E 031°18'1 0.8
2014-Aug-30 12:33S 29°42' E 031°18'0 0.5
2014-Aug-30 11:33S 29°42' E 031°18'1 0.6
2014-Aug-30 10:33S 29°41' E 031°18'1 1.1
2014-Aug-30 09:33S 29°40' E 031°18'2 2.4
2014-Aug-30 08:33S 29°42' E 031°17'8 7.5
2014-Aug-30 07:33S 29°50' E 031°15'8 7.6
2014-Aug-30 06:33S 29°56' E 031°10'9 8.7
2014-Aug-30 05:33S 30°03' E 031°04'1111.2
2014-Aug-30 04:32S 30°13' E 030°58'30011.1
2014-Aug-29 01:30S 33°51' E 026°54'24111.4
2014-Aug-28 04:24S 34°40' E 022°09'6610.9
2014-Aug-27 22:20S 34°51' E 020°49'2110.9
2014-Aug-27 20:26S 34°54' E 020°25'3110.7
2014-Aug-27 17:31S 34°57' E 019°47'2310.2
2014-Aug-27 15:14S 34°50' E 019°20'1810.4
2014-Aug-27 13:30S 34°42' E 018°60'1010.8
2014-Aug-27 12:33S 34°38' E 018°48'1110.8
2014-Aug-27 11:33S 34°34' E 018°36'1310.7
2014-Aug-27 10:23S 34°29' E 018°22'13 9.9
2014-Aug-27 09:04S 34°20' E 018°11'5 9.8
2014-Aug-27 08:31S 34°15' E 018°08'1010.0
2014-Aug-27 07:32S 34°07' E 018°01'  

Dump ship's entire track history